Time,TemperatureF,DewpointF,PressureIn,WindDirection,WindDirectionDegrees,WindSpeedMPH,WindSpeedGustMPH,Humidity,HourlyPrecipIn,Conditions,Clouds,dailyrainin,SoftwareType,DateUTC
2013-02-04 00:03:00,32.5,31.2,30.15,NW,304,0.0,0.0,95,0.00,,---,0.00,VWS V13.00,2013-02-04 08:03:00,
2013-02-04 00:08:00,32.5,31.2,30.15,NW,304,0.0,0.0,95,0.00,,---,0.00,VWS V13.00,2013-02-04 08:08:00,
2013-02-04 00:13:00,32.5,31.2,30.14,NW,304,0.0,1.0,95,0.00,,---,0.00,VWS V13.00,2013-02-04 08:13:00,
2013-02-04 00:18:00,32.6,31.3,30.15,WNW,303,0.0,1.0,95,0.00,,---,0.00,VWS V13.00,2013-02-04 08:18:00,
2013-02-04 00:23:00,32.6,31.3,30.15,WNW,303,0.0,1.0,95,0.00,,---,0.00,VWS V13.00,2013-02-04 08:23:00,
2013-02-04 00:28:00,32.5,31.2,30.15,NW,304,0.0,1.0,95,0.00,,---,0.00,VWS V13.00,2013-02-04 08:28:00,
2013-02-04 00:33:00,32.6,31.3,30.15,NW,304,0.0,0.0,95,0.00,,---,0.00,VWS V13.00,2013-02-04 08:33:00,
2013-02-04 00:38:00,32.5,31.2,30.15,NW,304,0.0,0.0,95,0.00,,---,0.00,VWS V13.00,2013-02-04 08:38:00,
2013-02-04 00:43:00,32.5,31.2,30.14,WNW,303,0.0,0.0,95,0.00,,---,0.00,VWS V13.00,2013-02-04 08:43:00,
2013-02-04 00:48:00,32.5,31.2,30.14,WNW,303,0.0,0.0,95,0.00,,---,0.00,VWS V13.00,2013-02-04 08:48:00,
2013-02-04 00:53:00,32.5,31.2,30.15,NW,304,0.0,0.0,95,0.00,,---,0.00,VWS V13.00,2013-02-04 08:53:00,
2013-02-04 00:58:00,32.5,31.2,30.15,NW,304,0.0,0.0,95,0.00,,---,0.00,VWS V13.00,2013-02-04 08:58:00,
2013-02-04 01:03:00,32.5,31.2,30.15,NW,304,0.0,0.0,95,0.00,,---,0.00,VWS V13.00,2013-02-04 09:03:00,
2013-02-04 01:08:00,32.5,31.2,30.14,WNW,303,0.0,0.0,95,0.00,,---,0.00,VWS V13.00,2013-02-04 09:08:00,
2013-02-04 01:13:00,32.5,31.2,30.14,NW,304,0.0,0.0,95,0.00,,---,0.00,VWS V13.00,2013-02-04 09:13:00,
2013-02-04 01:18:00,32.5,31.2,30.14,WNW,303,0.0,1.0,95,0.00,,---,0.00,VWS V13.00,2013-02-04 09:18:00,
2013-02-04 01:23:00,32.6,31.3,30.14,WNW,303,0.0,1.0,95,0.00,,---,0.00,VWS V13.00,2013-02-04 09:23:00,
2013-02-04 01:28:00,32.5,31.2,30.14,WNW,303,0.0,1.0,95,0.00,,---,0.00,VWS V13.00,2013-02-04 09:28:00,
2013-02-04 01:33:00,32.5,31.2,30.14,NW,304,0.0,2.0,95,0.00,,---,0.00,VWS V13.00,2013-02-04 09:33:00,
2013-02-04 01:38:00,32.6,31.3,30.14,NW,304,0.0,2.0,95,0.00,,---,0.00,VWS V13.00,2013-02-04 09:38:00,
2013-02-04 01:43:00,32.5,31.2,30.14,NW,304,0.0,2.0,95,0.00,,---,0.00,VWS V13.00,2013-02-04 09:43:00,
2013-02-04 01:48:00,32.5,31.2,30.14,WNW,303,0.0,2.0,95,0.00,,---,0.00,VWS V13.00,2013-02-04 09:48:00,
2013-02-04 01:53:00,32.5,31.2,30.14,WNW,303,0.0,2.0,95,0.00,,---,0.00,VWS V13.00,2013-02-04 09:53:00,
2013-02-04 01:58:00,32.5,31.2,30.14,WNW,303,0.0,2.0,95,0.00,,---,0.00,VWS V13.00,2013-02-04 09:58:00,
2013-02-04 02:03:00,32.5,31.2,30.15,NW,304,0.0,0.0,95,0.00,,---,0.00,VWS V13.00,2013-02-04 10:03:00,
2013-02-04 02:08:00,32.5,31.2,30.14,NW,304,0.0,0.0,95,0.00,,---,0.00,VWS V13.00,2013-02-04 10:08:00,
2013-02-04 02:13:00,32.5,31.2,30.14,WNW,303,0.0,0.0,95,0.00,,---,0.00,VWS V13.00,2013-02-04 10:13:00,
2013-02-04 02:18:00,32.5,31.2,30.15,WNW,303,0.0,1.0,95,0.00,,---,0.00,VWS V13.00,2013-02-04 10:18:00,
2013-02-04 02:23:00,32.5,31.2,30.14,NW,304,0.0,1.0,95,0.00,,---,0.00,VWS V13.00,2013-02-04 10:23:00,
2013-02-04 02:28:00,32.5,31.2,30.14,NW,304,0.0,1.0,95,0.00,,---,0.00,VWS V13.00,2013-02-04 10:28:00,
2013-02-04 02:33:00,32.5,31.2,30.15,NW,304,0.0,0.0,95,0.00,,---,0.00,VWS V13.00,2013-02-04 10:33:00,
2013-02-04 02:38:00,32.5,31.2,30.14,WNW,303,0.0,0.0,95,0.00,,---,0.00,VWS V13.00,2013-02-04 10:38:00,
2013-02-04 02:43:00,32.5,31.2,30.14,NW,304,0.0,0.0,95,0.00,,---,0.00,VWS V13.00,2013-02-04 10:43:00,
2013-02-04 02:48:00,32.6,31.3,30.14,NW,304,0.0,2.0,95,0.00,,---,0.00,VWS V13.00,2013-02-04 10:48:00,
2013-02-04 02:53:00,32.6,31.6,30.13,NW,304,1.0,2.0,96,0.00,,---,0.00,VWS V13.00,2013-02-04 10:53:00,
2013-02-04 02:58:00,32.7,31.4,30.13,WNW,303,1.0,2.0,95,0.00,,---,0.00,VWS V13.00,2013-02-04 10:58:00,
2013-02-04 03:03:00,32.8,31.5,30.13,WNW,303,0.0,2.0,95,0.00,,---,0.00,VWS V13.00,2013-02-04 11:03:00,
2013-02-04 03:08:00,32.8,31.5,30.13,NW,304,2.0,3.0,95,0.00,,---,0.00,VWS V13.00,2013-02-04 11:08:00,
2013-02-04 03:13:00,32.9,31.6,30.13,NW,304,2.0,3.0,95,0.00,,---,0.00,VWS V13.00,2013-02-04 11:13:00,
2013-02-04 03:18:00,33.0,31.7,30.14,WNW,303,0.0,3.0,95,0.00,,---,0.00,VWS V13.00,2013-02-04 11:18:00,
2013-02-04 03:23:00,33.0,31.7,30.15,NW,304,0.0,3.0,95,0.00,,---,0.00,VWS V13.00,2013-02-04 11:23:00,
2013-02-04 03:28:00,33.0,32.0,30.14,SW,217,0.0,3.0,96,0.00,,---,0.00,VWS V13.00,2013-02-04 11:28:00,
2013-02-04 03:33:00,33.0,32.0,30.14,SW,217,0.0,2.0,96,0.00,,---,0.00,VWS V13.00,2013-02-04 11:33:00,
2013-02-04 03:38:00,33.1,32.1,30.14,SW,216,2.0,3.0,96,0.00,,---,0.00,VWS V13.00,2013-02-04 11:38:00,
2013-02-04 03:43:00,33.1,32.1,30.14,SW,216,3.0,3.0,96,0.00,,---,0.00,VWS V13.00,2013-02-04 11:43:00,
2013-02-04 03:48:00,33.2,32.2,30.14,SW,215,0.0,3.0,96,0.00,,---,0.00,VWS V13.00,2013-02-04 11:48:00,
2013-02-04 03:53:00,33.2,32.2,30.15,SW,216,0.0,3.0,96,0.00,,---,0.00,VWS V13.00,2013-02-04 11:53:00,
2013-02-04 03:58:00,33.2,32.2,30.15,SW,216,0.0,3.0,96,0.00,,---,0.00,VWS V13.00,2013-02-04 11:58:00,
2013-02-04 04:03:00,33.2,32.2,30.15,WSW,248,2.0,4.0,96,0.00,,---,0.00,VWS V13.00,2013-02-04 12:03:00,
2013-02-04 04:08:00,33.2,32.2,30.15,SW,236,1.0,4.0,96,0.00,,---,0.00,VWS V13.00,2013-02-04 12:08:00,
2013-02-04 04:13:00,33.3,32.3,30.15,SW,236,0.0,4.0,96,0.00,,---,0.00,VWS V13.00,2013-02-04 12:13:00,
2013-02-04 04:18:00,33.3,32.3,30.14,SW,236,0.0,4.0,96,0.00,,---,0.00,VWS V13.00,2013-02-04 12:18:00,
2013-02-04 04:23:00,33.3,32.3,30.14,SW,236,0.0,4.0,96,0.00,,---,0.00,VWS V13.00,2013-02-04 12:23:00,
2013-02-04 04:28:00,33.3,32.3,30.14,South,175,2.0,4.0,96,0.00,,---,0.00,VWS V13.00,2013-02-04 12:28:00,
2013-02-04 04:33:00,33.3,32.3,30.14,South,175,0.0,3.0,96,0.00,,---,0.00,VWS V13.00,2013-02-04 12:33:00,
2013-02-04 04:38:00,33.3,32.3,30.14,South,175,0.0,3.0,96,0.00,,---,0.00,VWS V13.00,2013-02-04 12:38:00,
2013-02-04 04:43:00,33.3,32.3,30.14,South,175,0.0,3.0,96,0.00,,---,0.00,VWS V13.00,2013-02-04 12:43:00,
2013-02-04 04:48:00,33.2,32.2,30.14,South,175,0.0,3.0,96,0.00,,---,0.00,VWS V13.00,2013-02-04 12:48:00,
2013-02-04 04:53:00,33.2,32.2,30.14,South,175,1.0,4.0,96,0.00,,---,0.00,VWS V13.00,2013-02-04 12:53:00,
2013-02-04 04:58:00,33.2,32.2,30.13,South,175,1.0,4.0,96,0.00,,---,0.00,VWS V13.00,2013-02-04 12:58:00,
2013-02-04 05:03:00,33.2,32.2,30.13,South,175,0.0,2.0,96,0.00,,---,0.00,VWS V13.00,2013-02-04 13:03:00,
2013-02-04 05:08:00,33.2,32.2,30.12,South,175,0.0,2.0,96,0.00,,---,0.00,VWS V13.00,2013-02-04 13:08:00,
2013-02-04 05:13:00,33.1,32.1,30.13,South,175,0.0,2.0,96,0.00,,---,0.00,VWS V13.00,2013-02-04 13:13:00,
2013-02-04 05:18:00,33.1,32.1,30.13,South,175,0.0,2.0,96,0.00,,---,0.00,VWS V13.00,2013-02-04 13:18:00,
2013-02-04 05:23:00,33.1,32.1,30.13,South,175,0.0,2.0,96,0.00,,---,0.00,VWS V13.00,2013-02-04 13:23:00,
2013-02-04 05:28:00,33.1,32.1,30.14,South,175,1.0,3.0,96,0.00,,---,0.00,VWS V13.00,2013-02-04 13:28:00,
2013-02-04 05:33:00,33.0,32.0,30.14,South,175,0.0,4.0,96,0.00,,---,0.00,VWS V13.00,2013-02-04 13:33:00,
2013-02-04 05:38:00,33.0,32.0,30.14,South,175,0.0,4.0,96,0.00,,---,0.00,VWS V13.00,2013-02-04 13:38:00,
2013-02-04 05:43:00,33.0,32.0,30.14,South,175,0.0,4.0,96,0.00,,---,0.00,VWS V13.00,2013-02-04 13:43:00,
2013-02-04 05:48:00,33.0,32.0,30.14,South,175,0.0,4.0,96,0.00,,---,0.00,VWS V13.00,2013-02-04 13:48:00,
2013-02-04 05:53:00,33.0,31.7,30.14,South,175,0.0,4.0,95,0.00,,---,0.00,VWS V13.00,2013-02-04 13:53:00,
2013-02-04 05:58:00,32.9,31.6,30.14,South,175,0.0,4.0,95,0.00,,---,0.00,VWS V13.00,2013-02-04 13:58:00,
2013-02-04 06:03:00,32.9,31.6,30.13,South,175,1.0,2.0,95,0.00,,---,0.00,VWS V13.00,2013-02-04 14:03:00,
2013-02-04 06:08:00,32.9,31.6,30.14,South,175,3.0,3.0,95,0.00,,---,0.00,VWS V13.00,2013-02-04 14:08:00,
2013-02-04 06:13:00,32.9,31.6,30.14,South,175,3.0,3.0,95,0.00,,---,0.00,VWS V13.00,2013-02-04 14:13:00,
2013-02-04 06:18:00,32.8,31.5,30.14,South,175,2.0,4.0,95,0.00,,---,0.00,VWS V13.00,2013-02-04 14:18:00,
2013-02-04 06:23:00,32.7,31.4,30.14,SE,127,1.0,4.0,95,0.00,,---,0.00,VWS V13.00,2013-02-04 14:23:00,
2013-02-04 06:28:00,32.6,31.3,30.13,SE,128,0.0,4.0,95,0.00,,---,0.00,VWS V13.00,2013-02-04 14:28:00,
2013-02-04 06:33:00,32.5,31.2,30.13,SE,128,0.0,3.0,95,0.00,,---,0.00,VWS V13.00,2013-02-04 14:33:00,
2013-02-04 06:38:00,32.5,31.2,30.15,SE,128,1.0,3.0,95,0.00,,---,0.00,VWS V13.00,2013-02-04 14:38:00,
2013-02-04 06:43:00,32.5,31.2,30.13,SE,128,0.0,3.0,95,0.00,,---,0.00,VWS V13.00,2013-02-04 14:43:00,
2013-02-04 06:48:00,32.4,31.1,30.14,SE,128,0.0,3.0,95,0.00,,---,0.00,VWS V13.00,2013-02-04 14:48:00,
2013-02-04 06:53:00,32.4,31.1,30.14,SE,128,0.0,3.0,95,0.00,,---,0.00,VWS V13.00,2013-02-04 14:53:00,
2013-02-04 06:58:00,32.4,31.1,30.13,SE,128,0.0,3.0,95,0.00,,---,0.00,VWS V13.00,2013-02-04 14:58:00,
2013-02-04 07:03:00,32.4,31.1,30.14,SE,128,0.0,0.0,95,0.00,,---,0.00,VWS V13.00,2013-02-04 15:03:00,
2013-02-04 07:08:00,32.4,31.1,30.15,SE,128,0.0,0.0,95,0.00,,---,0.00,VWS V13.00,2013-02-04 15:08:00,
2013-02-04 07:13:00,32.4,31.1,30.14,SE,128,0.0,2.0,95,0.00,,---,0.00,VWS V13.00,2013-02-04 15:13:00,
2013-02-04 07:18:00,32.4,31.1,30.15,SE,128,0.0,2.0,95,0.00,,---,0.00,VWS V13.00,2013-02-04 15:18:00,
2013-02-04 07:23:00,32.4,31.1,30.15,SE,128,1.0,2.0,95,0.00,,---,0.00,VWS V13.00,2013-02-04 15:23:00,
2013-02-04 07:28:00,32.4,31.1,30.15,SE,128,0.0,2.0,95,0.00,,---,0.00,VWS V13.00,2013-02-04 15:28:00,
2013-02-04 07:33:00,32.4,31.1,30.15,SE,128,0.0,0.0,95,0.00,,---,0.00,VWS V13.00,2013-02-04 15:33:00,
2013-02-04 07:38:00,32.4,31.1,30.15,SE,128,0.0,0.0,95,0.00,,---,0.00,VWS V13.00,2013-02-04 15:38:00,
2013-02-04 07:43:00,32.4,31.1,30.15,SE,128,0.0,1.0,95,0.00,,---,0.00,VWS V13.00,2013-02-04 15:43:00,
2013-02-04 07:48:00,32.4,31.1,30.15,SE,128,0.0,1.0,95,0.00,,---,0.00,VWS V13.00,2013-02-04 15:48:00,
2013-02-04 07:53:00,32.5,31.2,30.15,SE,128,0.0,1.0,95,0.00,,---,0.00,VWS V13.00,2013-02-04 15:53:00,
2013-02-04 07:58:00,32.4,31.1,30.15,SE,128,1.0,1.0,95,0.00,,---,0.00,VWS V13.00,2013-02-04 15:58:00,
2013-02-04 08:02:00,32.5,31.2,30.15,SE,128,0.0,2.0,95,0.00,,---,0.00,VWS V13.00,2013-02-04 16:02:00,
2013-02-04 08:08:00,32.5,31.2,30.15,SE,128,0.0,2.0,95,0.00,,---,0.00,VWS V13.00,2013-02-04 16:08:00,
2013-02-04 08:12:00,32.5,31.2,30.15,SE,128,0.0,2.0,95,0.00,,---,0.00,VWS V13.00,2013-02-04 16:12:00,
2013-02-04 08:17:00,32.6,31.3,30.15,SE,128,0.0,2.0,95,0.00,,---,0.00,VWS V13.00,2013-02-04 16:17:00,
2013-02-04 08:22:00,32.6,31.3,30.16,SE,128,1.0,2.0,95,0.00,,---,0.00,VWS V13.00,2013-02-04 16:22:00,
2013-02-04 08:27:00,32.7,31.4,30.16,SE,128,2.0,3.0,95,0.00,,---,0.00,VWS V13.00,2013-02-04 16:27:00,
2013-02-04 08:32:00,32.7,31.4,30.15,SE,128,1.0,2.0,95,0.00,,---,0.00,VWS V13.00,2013-02-04 16:32:00,
2013-02-04 08:37:00,32.8,31.5,30.15,SE,128,1.0,2.0,95,0.00,,---,0.00,VWS V13.00,2013-02-04 16:37:00,
2013-02-04 08:42:00,32.8,31.5,30.14,SE,128,1.0,2.0,95,0.00,,---,0.00,VWS V13.00,2013-02-04 16:42:00,
2013-02-04 08:47:00,32.9,31.6,30.14,SE,128,1.0,3.0,95,0.00,,---,0.00,VWS V13.00,2013-02-04 16:47:00,
2013-02-04 08:52:00,32.9,31.6,30.15,SSE,153,1.0,5.0,95,0.00,,---,0.00,VWS V13.00,2013-02-04 16:52:00,
2013-02-04 08:57:00,33.0,31.7,30.15,SE,141,3.0,5.0,95,0.00,,---,0.00,VWS V13.00,2013-02-04 16:57:00,
2013-02-04 09:02:00,33.0,31.7,30.14,ESE,120,1.0,3.0,95,0.00,,---,0.00,VWS V13.00,2013-02-04 17:02:00,
2013-02-04 09:07:00,33.2,31.9,30.15,ESE,118,3.0,5.0,95,0.00,,---,0.00,VWS V13.00,2013-02-04 17:07:00,
2013-02-04 09:12:00,33.3,32.0,30.15,ESE,119,0.0,5.0,95,0.00,,---,0.00,VWS V13.00,2013-02-04 17:12:00,
2013-02-04 09:17:00,33.4,32.1,30.16,ESE,119,1.0,5.0,95,0.00,,---,0.00,VWS V13.00,2013-02-04 17:17:00,
2013-02-04 09:22:00,33.5,32.2,30.16,ESE,119,2.0,5.0,95,0.00,,---,0.00,VWS V13.00,2013-02-04 17:22:00,
2013-02-04 09:27:00,33.6,32.3,30.16,ESE,118,1.0,5.0,95,0.00,,---,0.00,VWS V13.00,2013-02-04 17:27:00,
2013-02-04 09:32:00,33.7,32.4,30.16,ESE,118,2.0,3.0,95,0.00,,---,0.00,VWS V13.00,2013-02-04 17:32:00,
2013-02-04 09:37:00,33.8,32.5,30.15,ESE,119,0.0,3.0,95,0.00,,---,0.00,VWS V13.00,2013-02-04 17:37:00,
2013-02-04 09:42:00,33.9,32.6,30.15,ESE,119,1.0,3.0,95,0.00,,---,0.00,VWS V13.00,2013-02-04 17:42:00,
2013-02-04 09:47:00,34.0,32.7,30.15,ESE,119,1.0,3.0,95,0.00,,---,0.00,VWS V13.00,2013-02-04 17:47:00,
2013-02-04 09:52:00,34.1,32.8,30.16,ESE,119,2.0,3.0,95,0.00,,---,0.00,VWS V13.00,2013-02-04 17:52:00,
2013-02-04 09:57:00,34.3,33.0,30.17,ESE,119,2.0,4.0,95,0.00,,---,0.00,VWS V13.00,2013-02-04 17:57:00,
2013-02-04 10:02:00,34.4,33.1,30.17,ESE,118,1.0,2.0,95,0.00,,---,0.00,VWS V13.00,2013-02-04 18:02:00,
2013-02-04 10:07:00,34.4,33.1,30.17,ESE,119,2.0,4.0,95,0.00,,---,0.00,VWS V13.00,2013-02-04 18:07:00,
2013-02-04 10:12:00,34.7,33.4,30.16,ESE,119,1.0,4.0,95,0.00,,---,0.00,VWS V13.00,2013-02-04 18:12:00,
2013-02-04 10:17:00,34.9,33.6,30.16,ESE,118,2.0,4.0,95,0.00,,---,0.00,VWS V13.00,2013-02-04 18:17:00,
2013-02-04 10:22:00,35.2,33.9,30.16,ESE,118,2.0,5.0,95,0.00,,---,0.00,VWS V13.00,2013-02-04 18:22:00,
2013-02-04 10:27:00,35.5,34.2,30.16,ESE,113,2.0,5.0,95,0.00,,---,0.00,VWS V13.00,2013-02-04 18:27:00,
2013-02-04 10:32:00,35.7,34.2,30.15,SE,138,1.0,5.0,94,0.00,,---,0.00,VWS V13.00,2013-02-04 18:32:00,
2013-02-04 10:37:00,35.8,34.2,30.16,ESE,115,2.0,7.0,94,0.00,,---,0.00,VWS V13.00,2013-02-04 18:37:00,
2013-02-04 10:42:00,35.9,34.1,30.16,ESE,119,2.0,7.0,93,0.00,,---,0.00,VWS V13.00,2013-02-04 18:42:00,
2013-02-04 10:47:00,36.0,34.2,30.16,ESE,113,0.0,7.0,93,0.00,,---,0.00,VWS V13.00,2013-02-04 18:47:00,
2013-02-04 10:52:00,36.3,34.5,30.15,ESE,110,4.0,7.0,93,0.00,,---,0.00,VWS V13.00,2013-02-04 18:52:00,
2013-02-04 10:57:00,36.5,34.4,30.15,SE,134,3.0,9.0,92,0.00,,---,0.00,VWS V13.00,2013-02-04 18:57:00,
2013-02-04 11:02:00,36.7,34.6,30.15,SSE,160,6.0,6.0,92,0.00,,---,0.00,VWS V13.00,2013-02-04 19:02:00,
2013-02-04 11:07:00,37.0,34.6,30.14,SE,138,6.0,10.0,91,0.00,,---,0.00,VWS V13.00,2013-02-04 19:07:00,
2013-02-04 11:12:00,37.2,34.5,30.14,SSE,165,3.0,10.0,90,0.00,,---,0.00,VWS V13.00,2013-02-04 19:12:00,
2013-02-04 11:17:00,37.3,34.4,30.14,SSE,148,6.0,10.0,89,0.00,,---,0.00,VWS V13.00,2013-02-04 19:17:00,
2013-02-04 11:22:00,37.3,34.1,30.14,ESE,116,2.0,10.0,88,0.00,,---,0.00,VWS V13.00,2013-02-04 19:22:00,
2013-02-04 11:27:00,37.4,34.2,30.13,ESE,114,2.0,10.0,88,0.00,,---,0.00,VWS V13.00,2013-02-04 19:27:00,
2013-02-04 11:32:00,37.8,34.6,30.13,ESE,123,1.0,6.0,88,0.00,,---,0.00,VWS V13.00,2013-02-04 19:32:00,
2013-02-04 11:37:00,38.2,34.7,30.12,SSE,159,3.0,11.0,87,0.00,,---,0.00,VWS V13.00,2013-02-04 19:37:00,
2013-02-04 11:42:00,38.5,34.7,30.12,SE,132,2.0,11.0,86,0.00,,---,0.00,VWS V13.00,2013-02-04 19:42:00,
2013-02-04 11:47:00,38.8,34.7,30.12,SE,137,3.0,11.0,85,0.00,,---,0.00,VWS V13.00,2013-02-04 19:47:00,
2013-02-04 11:52:00,39.1,35.0,30.12,SSE,165,1.0,11.0,85,0.00,,---,0.00,VWS V13.00,2013-02-04 19:52:00,
2013-02-04 11:57:00,39.2,34.8,30.12,SE,143,2.0,11.0,84,0.00,,---,0.00,VWS V13.00,2013-02-04 19:57:00,
2013-02-04 12:02:00,39.3,34.9,30.12,SSW,199,2.0,5.0,84,0.01,,---,0.01,VWS V13.00,2013-02-04 20:02:00,
2013-02-04 12:07:00,40.0,35.6,30.12,SSE,161,0.0,5.0,84,0.01,,---,0.01,VWS V13.00,2013-02-04 20:07:00,
2013-02-04 12:12:00,40.6,35.2,30.10,South,178,9.0,11.0,81,0.01,,---,0.01,VWS V13.00,2013-02-04 20:12:00,
2013-02-04 12:17:00,41.1,35.4,30.10,South,169,3.0,11.0,80,0.01,,---,0.01,VWS V13.00,2013-02-04 20:17:00,
2013-02-04 12:22:00,41.2,35.2,30.10,SSE,155,5.0,11.0,79,0.01,,---,0.01,VWS V13.00,2013-02-04 20:22:00,
2013-02-04 12:27:00,40.9,34.9,30.09,SSE,151,9.0,15.0,79,0.01,,---,0.01,VWS V13.00,2013-02-04 20:27:00,
2013-02-04 12:32:00,40.6,34.9,30.09,SE,142,5.0,10.0,80,0.01,,---,0.01,VWS V13.00,2013-02-04 20:32:00,
2013-02-04 12:37:00,40.4,34.7,30.10,SE,141,6.0,11.0,80,0.01,,---,0.01,VWS V13.00,2013-02-04 20:37:00,
2013-02-04 12:42:00,40.4,34.7,30.10,SE,128,5.0,11.0,80,0.01,,---,0.01,VWS V13.00,2013-02-04 20:42:00,
2013-02-04 12:47:00,40.4,35.0,30.10,SE,128,1.0,11.0,81,0.01,,---,0.01,VWS V13.00,2013-02-04 20:47:00,
2013-02-04 12:52:00,40.4,34.7,30.10,SE,136,1.0,11.0,80,0.01,,---,0.01,VWS V13.00,2013-02-04 20:52:00,
2013-02-04 12:57:00,40.4,34.7,30.09,SSE,154,4.0,11.0,80,0.01,,---,0.01,VWS V13.00,2013-02-04 20:57:00,
2013-02-04 13:02:00,40.4,35.0,30.10,South,169,2.0,4.0,81,0.01,,---,0.01,VWS V13.00,2013-02-04 21:02:00,
2013-02-04 13:07:00,40.7,35.0,30.09,SSE,168,3.0,5.0,80,0.01,,---,0.01,VWS V13.00,2013-02-04 21:07:00,
2013-02-04 13:12:00,40.7,35.0,30.10,SSE,161,3.0,6.0,80,0.01,,---,0.01,VWS V13.00,2013-02-04 21:12:00,
2013-02-04 13:17:00,40.8,35.1,30.09,South,177,4.0,6.0,80,0.01,,---,0.01,VWS V13.00,2013-02-04 21:17:00,
2013-02-04 13:22:00,40.7,35.0,30.09,South,182,4.0,6.0,80,0.01,,---,0.01,VWS V13.00,2013-02-04 21:22:00,
2013-02-04 13:27:00,40.6,34.9,30.09,WSW,245,4.0,6.0,80,0.01,,---,0.01,VWS V13.00,2013-02-04 21:27:00,
2013-02-04 13:32:00,40.4,34.7,30.09,SW,233,1.0,4.0,80,0.00,,---,0.01,VWS V13.00,2013-02-04 21:32:00,
2013-02-04 13:37:00,40.3,34.6,30.09,South,174,3.0,5.0,80,0.00,,---,0.01,VWS V13.00,2013-02-04 21:37:00,
2013-02-04 13:42:00,40.2,34.8,30.10,South,175,0.0,6.0,81,0.00,,---,0.01,VWS V13.00,2013-02-04 21:42:00,
2013-02-04 13:47:00,40.1,34.8,30.10,South,172,2.0,6.0,81,0.00,,---,0.01,VWS V13.00,2013-02-04 21:47:00,
2013-02-04 13:52:00,40.1,34.8,30.09,South,172,2.0,6.0,81,0.00,,---,0.01,VWS V13.00,2013-02-04 21:52:00,
2013-02-04 13:57:00,40.0,34.7,30.09,South,173,2.0,6.0,81,0.00,,---,0.01,VWS V13.00,2013-02-04 21:57:00,
2013-02-04 14:02:00,39.9,34.5,30.09,South,187,5.0,6.0,81,0.00,,---,0.01,VWS V13.00,2013-02-04 22:02:00,
2013-02-04 14:07:00,39.8,34.5,30.09,SE,138,4.0,6.0,81,0.00,,---,0.01,VWS V13.00,2013-02-04 22:07:00,
2013-02-04 14:12:00,39.8,34.5,30.09,SE,126,4.0,7.0,81,0.00,,---,0.01,VWS V13.00,2013-02-04 22:12:00,
2013-02-04 14:17:00,39.7,34.7,30.10,SSE,150,3.0,7.0,82,0.00,,---,0.01,VWS V13.00,2013-02-04 22:17:00,
2013-02-04 14:22:00,39.7,34.7,30.10,SSE,155,4.0,7.0,82,0.00,,---,0.01,VWS V13.00,2013-02-04 22:22:00,
2013-02-04 14:27:00,39.6,34.6,30.09,SE,141,3.0,7.0,82,0.00,,---,0.01,VWS V13.00,2013-02-04 22:27:00,
2013-02-04 14:32:00,39.6,34.6,30.09,SE,129,2.0,7.0,82,0.00,,---,0.01,VWS V13.00,2013-02-04 22:32:00,
2013-02-04 14:37:00,39.5,34.8,30.09,SE,139,1.0,7.0,83,0.00,,---,0.01,VWS V13.00,2013-02-04 22:37:00,
2013-02-04 14:42:00,39.5,34.8,30.10,SE,139,0.0,7.0,83,0.00,,---,0.01,VWS V13.00,2013-02-04 22:42:00,
2013-02-04 14:47:00,39.5,34.8,30.09,SE,139,3.0,7.0,83,0.00,,---,0.01,VWS V13.00,2013-02-04 22:47:00,
2013-02-04 14:52:00,39.5,34.8,30.09,SSE,164,2.0,7.0,83,0.00,,---,0.01,VWS V13.00,2013-02-04 22:52:00,
2013-02-04 14:57:00,39.5,34.8,30.09,SSE,165,1.0,7.0,83,0.00,,---,0.01,VWS V13.00,2013-02-04 22:57:00,
2013-02-04 15:02:00,39.4,34.7,30.10,SSE,164,2.0,3.0,83,0.00,,---,0.01,VWS V13.00,2013-02-04 23:02:00,
2013-02-04 15:07:00,39.4,34.7,30.09,SSE,165,0.0,3.0,83,0.00,,---,0.01,VWS V13.00,2013-02-04 23:07:00,
2013-02-04 15:12:00,39.4,35.0,30.09,SSE,165,0.0,3.0,84,0.00,,---,0.01,VWS V13.00,2013-02-04 23:12:00,
2013-02-04 15:17:00,39.3,34.9,30.09,SSE,164,0.0,3.0,84,0.00,,---,0.01,VWS V13.00,2013-02-04 23:17:00,
2013-02-04 15:22:00,39.3,34.9,30.09,SSE,164,1.0,3.0,84,0.00,,---,0.01,VWS V13.00,2013-02-04 23:22:00,
2013-02-04 15:27:00,39.3,34.9,30.09,SSE,164,1.0,3.0,84,0.00,,---,0.01,VWS V13.00,2013-02-04 23:27:00,
2013-02-04 15:32:00,39.3,34.9,30.09,SSE,164,0.0,1.0,84,0.00,,---,0.01,VWS V13.00,2013-02-04 23:32:00,
2013-02-04 15:37:00,39.2,34.8,30.08,SSE,164,0.0,1.0,84,0.00,,---,0.01,VWS V13.00,2013-02-04 23:37:00,
2013-02-04 15:42:00,39.2,34.8,30.08,SSE,165,0.0,1.0,84,0.00,,---,0.01,VWS V13.00,2013-02-04 23:42:00,
2013-02-04 15:47:00,39.1,34.7,30.08,SSE,165,0.0,1.0,84,0.00,,---,0.01,VWS V13.00,2013-02-04 23:47:00,
2013-02-04 15:52:00,39.1,34.7,30.08,SSE,165,0.0,1.0,84,0.00,,---,0.01,VWS V13.00,2013-02-04 23:52:00,
2013-02-04 15:57:00,39.1,35.0,30.08,SSE,164,0.0,1.0,85,0.00,,---,0.01,VWS V13.00,2013-02-04 23:57:00,
2013-02-04 16:02:00,39.1,35.0,30.08,SSE,164,0.0,1.0,85,0.00,,---,0.01,VWS V13.00,2013-02-05 00:02:00,
2013-02-04 16:07:00,39.1,35.0,30.08,SSE,165,0.0,1.0,85,0.00,,---,0.01,VWS V13.00,2013-02-05 00:07:00,
2013-02-04 16:12:00,39.0,34.9,30.08,SSE,165,0.0,1.0,85,0.00,,---,0.01,VWS V13.00,2013-02-05 00:12:00,
2013-02-04 16:17:00,39.0,34.6,30.08,SSE,165,0.0,1.0,84,0.00,,---,0.01,VWS V13.00,2013-02-05 00:17:00,
2013-02-04 16:22:00,38.9,34.5,30.07,SSE,165,0.0,1.0,84,0.00,,---,0.01,VWS V13.00,2013-02-05 00:22:00,
2013-02-04 16:27:00,38.7,34.3,30.07,SSE,165,0.0,1.0,84,0.00,,---,0.01,VWS V13.00,2013-02-05 00:27:00,
2013-02-04 16:32:00,38.5,34.1,30.07,SSE,164,0.0,0.0,84,0.00,,---,0.01,VWS V13.00,2013-02-05 00:32:00,
2013-02-04 16:37:00,38.3,33.9,30.07,SSE,164,0.0,0.0,84,0.00,,---,0.01,VWS V13.00,2013-02-05 00:37:00,
2013-02-04 16:42:00,38.2,33.8,30.07,SSE,165,0.0,0.0,84,0.00,,---,0.01,VWS V13.00,2013-02-05 00:42:00,
2013-02-04 16:47:00,38.0,33.6,30.07,SSE,165,0.0,0.0,84,0.00,,---,0.01,VWS V13.00,2013-02-05 00:47:00,
2013-02-04 16:52:00,37.8,33.4,30.07,SSE,165,0.0,0.0,84,0.00,,---,0.01,VWS V13.00,2013-02-05 00:52:00,
2013-02-04 16:57:00,37.5,33.4,30.07,SSE,165,1.0,1.0,85,0.00,,---,0.01,VWS V13.00,2013-02-05 00:57:00,
2013-02-04 17:02:00,37.1,33.0,30.07,SSE,165,0.0,2.0,85,0.00,,---,0.01,VWS V13.00,2013-02-05 01:02:00,
2013-02-04 17:07:00,36.8,32.7,30.07,SSE,165,0.0,2.0,85,0.00,,---,0.01,VWS V13.00,2013-02-05 01:07:00,
2013-02-04 17:12:00,36.4,32.3,30.07,SSE,164,2.0,2.0,85,0.00,,---,0.01,VWS V13.00,2013-02-05 01:12:00,
2013-02-04 17:17:00,36.0,32.2,30.07,SSE,164,1.0,2.0,86,0.00,,---,0.01,VWS V13.00,2013-02-05 01:17:00,
2013-02-04 17:22:00,35.7,31.9,30.07,SSE,165,2.0,2.0,86,0.00,,---,0.01,VWS V13.00,2013-02-05 01:22:00,
2013-02-04 17:27:00,35.4,31.6,30.07,SSE,165,2.0,3.0,86,0.00,,---,0.01,VWS V13.00,2013-02-05 01:27:00,
2013-02-04 17:32:00,35.1,31.6,30.07,WSW,250,1.0,2.0,87,0.00,,---,0.01,VWS V13.00,2013-02-05 01:32:00,
2013-02-04 17:37:00,34.7,31.2,30.07,WSW,249,0.0,2.0,87,0.00,,---,0.01,VWS V13.00,2013-02-05 01:37:00,
2013-02-04 17:42:00,34.4,31.2,30.07,WSW,250,1.0,2.0,88,0.00,,---,0.01,VWS V13.00,2013-02-05 01:42:00,
2013-02-04 17:47:00,34.3,31.1,30.07,WSW,249,0.0,2.0,88,0.00,,---,0.01,VWS V13.00,2013-02-05 01:47:00,
2013-02-04 17:52:00,34.0,30.8,30.07,WSW,250,1.0,3.0,88,0.00,,---,0.01,VWS V13.00,2013-02-05 01:52:00,
2013-02-04 17:57:00,33.7,30.8,30.07,WSW,250,1.0,3.0,89,0.00,,---,0.01,VWS V13.00,2013-02-05 01:57:00,
2013-02-04 18:02:00,33.5,30.6,30.07,WSW,250,2.0,2.0,89,0.00,,---,0.01,VWS V13.00,2013-02-05 02:02:00,
2013-02-04 18:07:00,33.2,30.3,30.07,WSW,249,1.0,2.0,89,0.00,,---,0.01,VWS V13.00,2013-02-05 02:07:00,
2013-02-04 18:12:00,33.0,30.1,30.07,WSW,250,1.0,2.0,89,0.00,,---,0.01,VWS V13.00,2013-02-05 02:12:00,
2013-02-04 18:17:00,32.8,29.9,30.08,WSW,250,0.0,2.0,89,0.00,,---,0.01,VWS V13.00,2013-02-05 02:17:00,
2013-02-04 18:22:00,32.6,30.0,30.08,WSW,250,1.0,2.0,90,0.00,,---,0.01,VWS V13.00,2013-02-05 02:22:00,
2013-02-04 18:27:00,32.4,29.8,30.08,WSW,250,1.0,2.0,90,0.00,,---,0.01,VWS V13.00,2013-02-05 02:27:00,
2013-02-04 18:32:00,32.2,29.6,30.08,WSW,250,1.0,1.0,90,0.00,,---,0.01,VWS V13.00,2013-02-05 02:32:00,
2013-02-04 18:37:00,32.0,29.4,30.08,WSW,250,1.0,2.0,90,0.00,,---,0.01,VWS V13.00,2013-02-05 02:37:00,
2013-02-04 18:42:00,31.8,29.2,30.08,West,275,2.0,3.0,90,0.00,,---,0.01,VWS V13.00,2013-02-05 02:42:00,
2013-02-04 18:47:00,31.5,28.9,30.07,West,275,1.0,3.0,90,0.00,,---,0.01,VWS V13.00,2013-02-05 02:47:00,
2013-02-04 18:52:00,31.4,28.8,30.08,West,275,0.0,3.0,90,0.00,,---,0.01,VWS V13.00,2013-02-05 02:52:00,
2013-02-04 18:57:00,31.2,28.6,30.08,West,275,2.0,3.0,90,0.00,,---,0.01,VWS V13.00,2013-02-05 02:57:00,
2013-02-04 19:02:00,31.0,28.4,30.08,West,275,1.0,3.0,90,0.00,,---,0.01,VWS V13.00,2013-02-05 03:02:00,
2013-02-04 19:07:00,30.9,28.6,30.07,West,275,2.0,3.0,91,0.00,,---,0.01,VWS V13.00,2013-02-05 03:07:00,
2013-02-04 19:12:00,30.7,28.4,30.07,West,275,2.0,3.0,91,0.00,,---,0.01,VWS V13.00,2013-02-05 03:12:00,
2013-02-04 19:17:00,30.6,28.3,30.08,West,275,0.0,3.0,91,0.00,,---,0.01,VWS V13.00,2013-02-05 03:17:00,
2013-02-04 19:22:00,30.5,28.2,30.07,West,275,1.0,3.0,91,0.00,,---,0.01,VWS V13.00,2013-02-05 03:22:00,
2013-02-04 19:27:00,30.4,28.1,30.08,West,275,1.0,3.0,91,0.00,,---,0.01,VWS V13.00,2013-02-05 03:27:00,
2013-02-04 19:32:00,30.3,28.0,30.08,West,275,1.0,3.0,91,0.00,,---,0.01,VWS V13.00,2013-02-05 03:32:00,
2013-02-04 19:37:00,30.3,28.3,30.08,West,275,2.0,3.0,92,0.00,,---,0.01,VWS V13.00,2013-02-05 03:37:00,
2013-02-04 19:42:00,30.2,28.2,30.08,West,275,2.0,3.0,92,0.00,,---,0.01,VWS V13.00,2013-02-05 03:42:00,
2013-02-04 19:47:00,30.2,28.2,30.08,West,275,1.0,3.0,92,0.00,,---,0.01,VWS V13.00,2013-02-05 03:47:00,
2013-02-04 19:52:00,30.1,28.1,30.08,West,275,2.0,3.0,92,0.00,,---,0.01,VWS V13.00,2013-02-05 03:52:00,
2013-02-04 19:57:00,29.9,27.9,30.08,West,275,0.0,3.0,92,0.00,,---,0.01,VWS V13.00,2013-02-05 03:57:00,
2013-02-04 20:02:00,29.8,27.8,30.08,West,275,1.0,2.0,92,0.00,,---,0.01,VWS V13.00,2013-02-05 04:02:00,
2013-02-04 20:07:00,29.7,27.7,30.08,West,275,0.0,2.0,92,0.00,,---,0.01,VWS V13.00,2013-02-05 04:07:00,
2013-02-04 20:12:00,29.6,27.6,30.08,West,275,1.0,2.0,92,0.00,,---,0.01,VWS V13.00,2013-02-05 04:12:00,
2013-02-04 20:17:00,29.5,27.5,30.08,West,275,0.0,2.0,92,0.00,,---,0.01,VWS V13.00,2013-02-05 04:17:00,
2013-02-04 20:22:00,29.4,27.4,30.08,West,275,0.0,2.0,92,0.00,,---,0.01,VWS V13.00,2013-02-05 04:22:00,
2013-02-04 20:27:00,29.3,27.3,30.08,West,275,0.0,2.0,92,0.00,,---,0.01,VWS V13.00,2013-02-05 04:27:00,
2013-02-04 20:32:00,29.2,27.2,30.08,West,275,0.0,0.0,92,0.00,,---,0.01,VWS V13.00,2013-02-05 04:32:00,
2013-02-04 20:37:00,29.0,27.0,30.08,West,275,0.0,1.0,92,0.00,,---,0.01,VWS V13.00,2013-02-05 04:37:00,
2013-02-04 20:42:00,28.9,26.9,30.08,West,275,0.0,1.0,92,0.00,,---,0.01,VWS V13.00,2013-02-05 04:42:00,
2013-02-04 20:47:00,28.9,26.9,30.08,West,275,0.0,1.0,92,0.00,,---,0.01,VWS V13.00,2013-02-05 04:47:00,
2013-02-04 20:52:00,28.8,26.8,30.08,West,275,1.0,1.0,92,0.00,,---,0.01,VWS V13.00,2013-02-05 04:52:00,
2013-02-04 20:57:00,28.7,26.7,30.08,West,275,1.0,2.0,92,0.00,,---,0.01,VWS V13.00,2013-02-05 04:57:00,
2013-02-04 21:00:00,28.7,26.7,30.08,West,275,0.0,1.0,92,0.00,,---,0.01,VWS V13.00,2013-02-05 05:00:00,
2013-02-04 21:05:00,28.6,26.6,30.08,West,275,0.0,2.0,92,0.00,,---,0.01,VWS V13.00,2013-02-05 05:05:00,
2013-02-04 21:10:00,28.5,26.5,30.08,West,275,0.0,2.0,92,0.00,,---,0.01,VWS V13.00,2013-02-05 05:10:00,
2013-02-04 21:15:00,28.4,26.4,30.07,West,275,0.0,2.0,92,0.00,,---,0.01,VWS V13.00,2013-02-05 05:15:00,
2013-02-04 21:20:00,28.4,26.6,30.07,West,275,0.0,2.0,93,0.00,,---,0.01,VWS V13.00,2013-02-05 05:20:00,
2013-02-04 21:25:00,28.4,26.6,30.07,West,275,1.0,2.0,93,0.00,,---,0.01,VWS V13.00,2013-02-05 05:25:00,
2013-02-04 21:30:00,28.4,26.6,30.07,West,275,0.0,1.0,93,0.00,,---,0.01,VWS V13.00,2013-02-05 05:30:00,
2013-02-04 21:35:00,28.4,26.6,30.06,West,275,0.0,1.0,93,0.00,,---,0.01,VWS V13.00,2013-02-05 05:35:00,
2013-02-04 21:40:00,28.3,26.5,30.06,West,275,0.0,1.0,93,0.00,,---,0.01,VWS V13.00,2013-02-05 05:40:00,
2013-02-04 21:45:00,28.4,26.6,30.06,West,275,1.0,2.0,93,0.00,,---,0.01,VWS V13.00,2013-02-05 05:45:00,
2013-02-04 21:50:00,28.4,26.6,30.06,West,275,0.0,2.0,93,0.00,,---,0.01,VWS V13.00,2013-02-05 05:50:00,
2013-02-04 21:55:00,28.4,26.6,30.06,West,275,0.0,2.0,93,0.00,,---,0.01,VWS V13.00,2013-02-05 05:55:00,
2013-02-04 22:00:00,28.4,26.6,30.06,West,275,0.0,0.0,93,0.00,,---,0.01,VWS V13.00,2013-02-05 06:00:00,
2013-02-04 22:05:00,28.4,26.6,30.06,West,275,0.0,0.0,93,0.00,,---,0.01,VWS V13.00,2013-02-05 06:05:00,
2013-02-04 22:10:00,28.4,26.6,30.05,West,275,1.0,2.0,93,0.00,,---,0.01,VWS V13.00,2013-02-05 06:10:00,
2013-02-04 22:15:00,28.5,26.7,30.05,West,275,0.0,2.0,93,0.00,,---,0.01,VWS V13.00,2013-02-05 06:15:00,
2013-02-04 22:20:00,28.6,26.8,30.05,West,275,0.0,2.0,93,0.00,,---,0.01,VWS V13.00,2013-02-05 06:20:00,
2013-02-04 22:25:00,28.7,26.9,30.05,West,275,0.0,2.0,93,0.00,,---,0.01,VWS V13.00,2013-02-05 06:25:00,
2013-02-04 22:30:00,28.8,27.0,30.04,West,275,0.0,0.0,93,0.00,,---,0.01,VWS V13.00,2013-02-05 06:30:00,
2013-02-04 22:35:00,28.8,27.0,30.04,West,275,0.0,0.0,93,0.00,,---,0.01,VWS V13.00,2013-02-05 06:35:00,
2013-02-04 22:40:00,28.8,27.0,30.04,West,275,0.0,0.0,93,0.00,,---,0.01,VWS V13.00,2013-02-05 06:40:00,
2013-02-04 22:45:00,28.8,27.0,30.04,West,275,0.0,0.0,93,0.00,,---,0.01,VWS V13.00,2013-02-05 06:45:00,
2013-02-04 22:50:00,28.8,27.0,30.04,West,275,0.0,0.0,93,0.00,,---,0.01,VWS V13.00,2013-02-05 06:50:00,
2013-02-04 22:55:00,28.8,27.3,30.04,West,275,0.0,0.0,94,0.00,,---,0.01,VWS V13.00,2013-02-05 06:55:00,
2013-02-04 23:00:00,28.8,27.3,30.03,West,275,0.0,0.0,94,0.00,,---,0.01,VWS V13.00,2013-02-05 07:00:00,
2013-02-04 23:05:00,28.8,27.0,30.03,West,275,0.0,1.0,93,0.00,,---,0.01,VWS V13.00,2013-02-05 07:05:00,
2013-02-04 23:10:00,28.8,27.0,30.03,West,275,0.0,1.0,93,0.00,,---,0.01,VWS V13.00,2013-02-05 07:10:00,
2013-02-04 23:15:00,28.8,27.0,30.03,West,275,0.0,2.0,93,0.00,,---,0.01,VWS V13.00,2013-02-05 07:15:00,
2013-02-04 23:20:00,28.8,27.0,30.03,West,275,0.0,2.0,93,0.00,,---,0.01,VWS V13.00,2013-02-05 07:20:00,
2013-02-04 23:25:00,28.8,27.0,30.03,West,275,0.0,2.0,93,0.00,,---,0.01,VWS V13.00,2013-02-05 07:25:00,
2013-02-04 23:30:00,28.8,27.3,30.03,West,275,0.0,1.0,94,0.00,,---,0.01,VWS V13.00,2013-02-05 07:30:00,
2013-02-04 23:35:00,28.8,27.3,30.03,West,275,1.0,1.0,94,0.00,,---,0.01,VWS V13.00,2013-02-05 07:35:00,
2013-02-04 23:40:00,28.8,27.3,30.03,West,275,1.0,2.0,94,0.00,,---,0.01,VWS V13.00,2013-02-05 07:40:00,
2013-02-04 23:45:00,28.8,27.3,30.03,West,275,1.0,2.0,94,0.00,,---,0.01,VWS V13.00,2013-02-05 07:45:00,
2013-02-04 23:50:00,28.8,27.3,30.03,West,275,0.0,2.0,94,0.00,,---,0.01,VWS V13.00,2013-02-05 07:50:00,
2013-02-04 23:55:00,28.8,27.3,30.02,West,275,0.0,3.0,94,0.00,,---,0.01,VWS V13.00,2013-02-05 07:55:00,